Regional Weather Roundup
Issued by NWS Albany, NY

Home | Current Version | Previous Version | Graphics & Text | Print | Product List | Glossary Off
Versions: 1 2 3 4 5 6 7 8 9 10 11 12 13 14 15 16 17 18 19 20 21 22 23 24 25 26 27 28 29 30 31 32 33 34 35 36 37 38 39 40 41 42 43 44 45 46 47 48 49 50

000
ASUS41 KALY 170910
RWRALY

NEW YORK STATE HOURLY WEATHER ROUNDUP
NATIONAL WEATHER SERVICE ALBANY NY
500 AM EDT THU AUG 17 2017

NOTE: "FAIR" INDICATES FEW OR NO CLOUDS BELOW 12,000 FEET WITH NO
SIGNIFICANT WEATHER AND/OR NO OBSTRUCTIONS TO VISIBILITY.

NYZ032-033-038>043-046>054-057>066-NYZ062>081-082-084-171000-
EAST


CITY           SKY/WX    TMP DP  RH WIND       PRES   REMARKS
ALBANY         PTCLDY    54  51  90 CALM      30.07S
GLENS FALLS    CLOUDY    48  47  96 CALM      30.06S FOG
POUGHKEEPSIE   CLEAR     57  55  93 CALM      30.05R
NEWBURGH       CLEAR     63  61  94 CALM      30.06S
MONTGOMERY     MOCLDY    59  58  96 CALM      30.05S
WHITE PLAINS   PTCLDY    65  54  67 CALM      30.03S
ISLIP          MOCLDY    68  60  75 N7        30.02S
NEW YORK CITY  PTCLDY    71  59  65 NE6       30.02S
CENTRAL PARK   PTCLDY    71  54  54 NE3       30.06R
$$

NYZ005>009-017-018-044>046-055-056-171000-
CENTRAL


CITY           SKY/WX    TMP DP  RH WIND       PRES   REMARKS
FULTON         CLEAR     49  48  97 SE3       30.07S
SYRACUSE       PTCLDY    51  50  96 E6        30.06F
ROME           CLEAR     50  48  93 CALM      30.09F
ELMIRA         MOCLDY    54  54 100 CALM      30.06F
BINGHAMTON     MOCLDY    54  53  97 NE3       30.08S
MONTICELLO     CLEAR     53  52  96 N5        30.09S
$$

NYZ026>034-041>043-087-171000-
NORTH


CITY           SKY/WX    TMP DP  RH WIND       PRES   REMARKS
WATERTOWN      PTCLDY    49  49 100 E3        30.06S
FORT DRUM      NOT AVBL
OGDENSBURG     FAIR      54  53  97 CALM      30.05S
MASSENA        CLEAR     53  52  96 CALM      30.06S
SARANAC LAKE   MOCLDY    37  37 100 CALM      30.08S
PLATTSBURGH    CLEAR     52  48  86 CALM      30.03S
$$

NYZ001>004-010>016-019>021-085-171000-
WEST


CITY           SKY/WX    TMP DP  RH WIND       PRES   REMARKS
NIAGARA FALLS  PTCLDY    61  55  81 E5        30.02F
BUFFALO        CLOUDY    61  58  90 E6        30.02F
DUNKIRK        CLEAR     58  57  97 CALM      30.01F
JAMESTOWN      CLEAR     61  57  88 CALM      30.06F
WELLSVILLE     FOG       56  54  93 SE5       30.09F VSB 1/4
ROCHESTER      PTCLDY    57  55  93 CALM      30.05F
PENN YAN       CLOUDY    56  54  93 CALM      30.07S FOG
$$

             KEY
       WCI = WIND CHILL INDEX
       VSB = VISIBILITY
       HX  = HEAT INDEX
$$



USA.gov is the U.S. government's official web portal to all federal, state and local government web resources and services.